Location: Rowland
(34.5359°N, 79.2929°W)
Time: 16:57:42
(UTC+00:00)

S-56A Canister/Altair - Pass Details

Date: 11 October 2022
Orbit: 638 x 2494 km, 38.9° (Epoch: 06 December)

Event Time Altitude Azimuth Distance (km) Brightness Sun altitude
Exits shadow 09:15:32 46° 273° (W) 1,867 8.9 -26.3°
Maximum altitude 09:18:21 68° 210° (SSW) 1,402 8.6 -25.7°
Drops below altitude 10° 09:25:04 10° 128° (SE) 2,766 10.9 -24.3°
Sets 09:27:15 0° 126° (SE) 3,534 11.6 -23.9°
